Theta_e
331 327 328 330 332 336 337 337 340 341 343 344 342 343 346 347 350 350 352 354 355 354 353 352 351 351 351 352 352 354 356 357 356 355 357 358 360 361 362 363 364 364 365 364 362 365 358 357 357 358 359 359 361 356 354 356 358 360 365 365 358 355 353 356 351 354 351 340 349 343 343 349 354 355 350 350 351 348 347 351 349 352 352 351 353
331 326 329 330 331 335 336 336 341 340 343 342 341 343 346 347 349 351 352 354 354 354 354 353 354 351 350 351 351 354 357 355 353 353 355 360 360 361 362 362 363 363 365 363 363 361 358 357 358 356 357 359 362 363 360 364 363 360 362 355 358 352 352 358 353 351 346 339 341 339 343 344 349 348 347 348 347 345 346 347 344 349 348 348 347
330 326 330 329 331 335 335 335 338 343 343 342 342 345 345 345 349 352 352 353 353 356 354 353 355 355 353 354 354 355 357 357 354 356 358 359 361 362 363 362 363 363 363 364 362 362 360 358 358 358 358 363 357 358 358 357 358 359 356 356 353 355 358 359 355 349 343 347 348 345 335 336 340 343 343 345 345 338 342 344 344 344 345 342 343
328 327 329 329 329 332 334 334 339 342 343 342 342 345 346 348 349 351 352 353 353 356 357 354 356 356 356 355 356 356 356 365 360 362 361 359 359 363 364 362 363 362 362 362 361 361 360 359 359 359 358 360 359 357 356 354 357 358 356 359 358 350 349 348 357 353 351 344 336 338 337 335 331 329 338 340 337 334 338 341 342 340 340 340 344
329 327 329 328 328 330 332 334 339 340 342 342 344 346 348 348 350 351 352 352 352 357 357 352 360 355 357 358 361 358 358 355 354 355 357 358 359 360 362 363 361 360 361 360 361 361 360 359 359 359 358 358 360 357 356 356 357 359 357 358 354 352 347 345 351 353 352 351 347 343 335 332 332 335 337 336 344 336 333 338 343 340 340 341 345
330 327 329 329 330 330 331 333 336 339 342 343 345 346 349 350 351 351 351 352 352 353 355 354 356 352 351 351 349 349 349 350 347 348 351 355 357 360 362 362 361 359 359 360 362 362 359 360 360 359 359 361 362 359 358 357 356 357 360 357 357 357 354 350 340 350 351 362 357 348 341 333 335 341 335 327 343 350 334 339 342 338 343 349 342
332 330 331 329 330 330 330 331 334 338 341 344 345 346 350 351 352 353 352 351 352 351 357 357 354 352 351 352 351 348 348 351 351 351 352 354 355 357 359 360 360 358 359 359 361 363 360 362 361 360 360 361 365 361 356 361 357 356 359 363 363 362 357 349 344 342 346 350 349 350 354 350 348 342 335 340 328 332 347 336 334 336 340 339 339
332 329 331 331 331 330 330 330 333 338 340 344 345 348 350 350 351 353 354 353 351 352 356 355 354 353 353 354 354 352 352 353 353 353 356 359 355 356 357 358 359 357 356 360 361 362 361 362 362 361 360 361 363 363 359 358 359 362 359 364 364 366 356 349 347 348 340 348 357 349 353 351 349 349 345 339 340 333 338 341 339 336 337 339 339
341 332 331 331 331 331 332 330 333 337 339 341 344 349 350 351 353 352 353 353 351 355 355 356 356 355 354 354 354 355 356 358 357 359 355 356 356 354 356 356 359 359 359 361 360 361 365 361 362 363 360 360 366 363 361 362 360 360 357 355 356 355 357 359 351 354 347 345 347 346 352 350 352 350 349 350 342 333 337 335 336 339 338 339 339
345 341 334 333 333 332 333 333 334 334 338 340 346 351 351 350 352 351 352 353 352 354 357 357 356 358 354 354 352 353 356 356 355 353 352 353 354 354 355 355 360 360 360 361 360 361 363 363 363 362 362 364 362 360 359 361 359 360 359 357 357 354 363 354 348 357 348 352 349 354 347 351 347 347 345 342 342 341 334 334 335 331 330 337 343
340 341 342 339 336 334 334 333 333 334 337 338 347 351 351 349 351 352 351 355 352 353 356 357 356 356 355 353 351 352 354 356 354 354 352 353 352 356 355 355 359 359 361 361 362 361 362 364 362 361 363 366 363 360 358 359 362 359 359 359 357 357 353 355 355 353 355 350 351 353 348 351 343 346 346 346 343 340 339 340 340 341 335 333 339
345 344 344 342 340 339 334 333 334 334 336 336 347 351 352 350 352 352 352 355 352 354 356 358 355 356 354 355 353 353 355 357 354 355 352 353 355 356 356 356 357 360 359 360 362 361 362 362 363 362 364 361 360 367 368 358 359 360 358 358 355 357 353 362 359 352 350 350 350 351 351 351 351 348 347 345 340 343 340 337 340 340 338 337 344
342 343 346 343 343 344 336 333 339 333 334 335 345 349 352 351 353 352 351 354 354 354 355 356 355 355 354 353 355 356 355 357 356 356 356 356 357 357 357 356 356 357 357 358 360 359 362 360 360 360 363 361 362 363 365 362 359 357 359 358 357 354 356 356 352 352 353 351 345 348 348 348 346 347 352 351 348 354 345 339 343 346 344 339 336
345 346 347 346 344 345 344 342 344 343 334 335 342 346 350 351 352 353 352 354 357 354 355 354 355 354 354 353 355 358 357 357 358 358 359 358 359 357 358 357 358 355 357 357 359 360 364 363 365 364 362 364 364 363 364 364 365 359 358 355 357 357 356 356 353 354 352 353 353 346 349 348 347 348 348 349 346 345 344 341 342 344 342 343 343
346 345 345 347 347 346 346 346 344 345 337 336 340 345 348 351 351 353 352 354 357 356 355 354 354 355 354 354 356 360 356 357 358 360 358 359 359 359 359 358 359 359 356 359 360 359 362 363 364 366 364 365 366 366 368 367 367 365 360 357 357 359 356 357 355 354 354 351 351 356 353 347 349 350 344 343 344 347 344 350 343 336 339 345 340
343 344 344 347 350 348 346 345 346 348 346 345 344 345 347 350 350 352 352 353 356 358 357 356 354 356 355 354 356 359 360 358 359 361 359 359 358 359 359 357 360 358 358 360 360 359 361 362 364 364 365 367 366 366 366 366 365 362 363 360 357 362 358 356 355 353 352 352 350 352 355 352 349 355 353 355 355 355 355 356 348 342 336 333 340
343 343 343 346 345 346 349 348 347 348 347 345 348 347 347 350 350 351 353 353 355 358 357 358 356 356 356 356 357 357 357 355 357 358 360 358 358 359 359 360 359 358 361 361 362 360 361 361 362 362 364 367 366 365 365 365 365 363 361 361 357 355 356 355 357 355 354 351 349 351 351 351 350 363 357 356 360 355 355 357 354 352 348 339 337
343 346 346 348 346 345 347 350 350 350 349 351 351 350 352 353 351 351 353 351 353 356 358 357 357 355 355 356 357 357 356 355 354 356 354 356 356 357 358 357 357 360 361 361 359 359 359 366 360 360 366 366 365 365 364 365 365 362 362 362 361 358 355 356 356 354 353 352 354 350 351 350 351 350 349 353 365 356 353 355 354 357 350 340 342
341 343 344 346 348 350 348 348 348 352 352 350 354 353 353 355 354 354 353 353 353 356 357 358 357 356 357 356 356 356 356 355 354 354 354 352 354 354 353 355 356 357 357 356 357 360 361 361 358 361 365 364 364 363 364 363 365 361 361 361 362 361 358 355 356 357 355 353 350 351 351 347 349 349 349 348 356 354 354 354 351 361 353 351 350
338 341 342 343 344 347 349 347 345 346 347 350 351 350 347 353 357 355 356 355 356 355 357 356 356 355 355 355 355 355 356 355 354 354 352 352 351 353 352 354 354 358 354 361 356 357 361 360 360 361 363 363 362 364 364 363 366 363 361 361 361 361 360 358 358 356 356 355 351 349 353 353 355 356 355 356 356 357 354 352 351 355 360 358 353
336 339 338 337 338 341 351 354 352 350 352 350 349 348 347 348 355 356 357 357 357 356 357 358 356 354 353 353 354 354 354 355 354 354 353 351 352 353 351 351 353 352 354 360 356 356 358 358 358 358 358 360 361 362 363 363 364 363 363 360 359 360 358 360 359 358 355 353 354 351 349 354 357 353 354 355 355 356 356 353 355 355 353 352 347
339 338 336 336 337 339 343 352 353 351 350 349 349 349 348 347 351 354 358 358 354 353 353 356 358 356 354 355 355 355 355 354 353 351 353 352 351 351 351 350 351 351 352 353 355 356 357 357 356 356 355 356 359 359 361 362 362 363 363 365 361 359 359 359 359 357 359 362 359 351 350 352 355 353 353 352 351 350 352 350 350 350 348 352 351
332 335 336 335 336 337 338 341 348 352 354 351 350 350 352 349 351 354 353 355 357 355 353 354 354 356 355 357 357 357 356 354 352 350 349 350 351 350 353 350 350 351 352 351 354 354 356 357 356 356 355 356 357 358 359 360 362 363 362 361 360 359 360 359 359 358 358 358 357 357 355 355 359 352 351 350 351 349 351 350 348 349 348 348 351
330 331 332 332 333 335 335 336 337 339 340 343 345 345 346 347 346 346 348 351 356 356 354 352 352 351 353 356 356 357 357 355 352 350 348 347 348 350 351 351 350 348 350 352 353 353 355 356 355 355 355 354 357 357 357 358 360 361 360 359 357 358 360 359 359 359 359 358 356 355 357 355 353 351 350 349 349 349 348 349 353 352 348 348 347
328 328 329 330 331 331 332 334 335 338 339 340 344 346 347 350 351 350 351 351 352 351 353 353 351 354 356 354 353 357 357 356 353 351 348 347 346 346 349 349 349 348 347 349 353 353 353 355 355 354 357 354 358 357 355 356 358 360 360 359 358 358 358 359 359 359 364 357 357 356 357 356 355 352 353 351 349 348 348 348 348 350 352 350 350
326 326 327 327 329 331 333 334 335 337 338 338 339 342 346 346 349 353 352 350 353 353 354 353 354 354 353 355 358 355 352 352 351 352 351 347 346 345 346 349 348 347 346 347 350 353 354 354 354 354 356 356 355 357 356 355 356 358 360 360 359 357 359 359 359 359 360 359 358 357 356 356 355 354 353 353 352 350 350 349 348 348 350 353 354
325 325 326 327 327 328 332 334 335 337 338 339 340 341 341 343 347 349 351 353 355 353 353 351 354 356 357 356 355 354 356 353 352 352 351 352 352 349 344 347 349 347 347 345 347 350 354 355 354 353 354 356 355 355 356 358 357 355 356 357 358 358 357 358 359 359 359 358 358 357 356 356 355 355 354 353 353 352 352 351 352 351 351 353 352
325 325 325 325 326 327 328 330 335 338 338 340 341 342 343 343 343 345 348 348 351 353 353 353 353 352 352 353 354 354 353 352 354 354 354 352 352 350 347 347 347 347 346 346 344 347 350 354 354 353 353 355 356 355 354 356 358 357 356 355 355 356 357 357 356 357 357 356 356 356 356 356 356 356 355 354 354 355 356 354 355 354 353 351 351
324 325 326 325 326 326 327 328 331 334 335 338 339 339 341 342 344 344 344 347 349 351 351 351 351 351 353 354 354 355 354 354 354 353 351 349 348 348 349 348 346 346 348 345 345 345 347 350 354 353 352 353 356 356 355 356 356 356 357 355 354 354 354 354 354 354 355 354 355 355 355 355 358 366 364 361 360 360 356 354 353 354 354 352 350
321 323 324 324 325 328 327 328 329 331 334 336 338 339 340 341 342 344 344 347 350 350 350 350 350 350 352 354 353 352 350 350 350 350 349 349 349 349 350 350 350 349 347 347 346 346 345 347 349 352 352 353 354 357 358 351 354 357 355 355 355 354 353 352 352 351 351 352 353 352 354 365 362 364 360 357 352 356 360 358 354 353 353 354 353
320 321 322 324 324 325 328 327 327 329 333 337 337 337 338 340 342 343 344 345 347 346 347 348 348 349 351 353 354 352 351 350 351 351 350 351 350 351 349 349 351 350 348 348 349 346 347 344 347 349 351 351 352 355 350 339 340 347 358 355 354 353 352 351 350 349 348 348 348 349 349 358 365 363 358 350 348 346 350 354 355 362 364 356 353
319 320 321 322 322 323 324 324 325 325 326 330 333 335 337 337 339 341 344 344 343 343 343 343 344 345 346 347 350 352 350 350 351 350 350 351 352 350 348 348 350 352 349 349 347 347 348 349 347 346 348 350 351 352 338 335 337 337 348 358 356 355 354 351 350 348 348 349 348 347 347 348 348 349 353 355 351 347 343 345 347 350 355 361 361
318 318 319 319 321 322 324 324 324 324 324 326 328 329 331 336 336 336 337 337 338 340 340 341 343 344 344 345 347 349 350 351 352 354 355 356 354 353 353 353 353 354 353 349 346 346 348 352 354 345 345 348 350 343 334 332 333 334 335 351 356 356 354 352 350 349 348 348 347 347 346 346 347 360 362 354 352 352 344 340 341 344 346 346 342
317 317 317 317 318 320 322 324 323 325 327 327 328 328 328 334 336 335 334 334 334 335 337 340 341 341 342 344 345 346 347 348 349 350 353 353 353 353 356 358 357 354 351 351 350 347 348 349 352 352 351 351 350 344 330 327 328 329 331 338 355 355 354 353 350 349 349 348 348 347 346 346 345 346 345 350 354 352 351 349 346 346 347 351 348
317 317 317 317 318 320 321 321 322 324 326 327 327 327 327 327 331 331 332 332 333 333 334 335 339 341 342 343 343 342 344 346 348 347 349 350 351 350 353 355 356 355 351 349 352 352 352 354 354 353 352 352 352 333 329 326 323 321 325 332 351 354 354 353 352 350 347 347 348 348 348 347 346 345 345 347 349 353 353 351 349 348 347 348 349
316 316 317 317 318 320 322 321 323 321 321 326 326 328 327 326 327 330 329 330 330 330 331 333 332 335 339 343 343 341 342 345 346 347 348 348 349 349 350 353 355 356 356 354 355 354 353 353 353 353 353 349 351 333 333 328 323 322 324 333 340 349 351 351 350 349 347 346 346 347 347 347 346 346 351 345 351 351 354 353 351 351 350 350 350
316 317 317 320 319 320 323 323 320 320 323 325 327 328 328 327 326 328 329 329 329 328 329 330 330 331 335 338 343 344 342 342 345 345 345 348 348 348 349 353 353 354 355 354 354 356 355 356 355 354 352 350 352 340 329 328 324 320 324 334 337 342 348 349 348 347 346 345 346 345 345 346 346 346 346 334 334 348 350 355 354 354 354 354 353
315 315 316 320 320 320 321 320 319 320 323 325 326 326 326 326 327 327 328 328 328 328 329 330 329 330 332 336 341 343 342 342 343 344 344 344 348 348 348 349 348 349 350 353 355 355 355 356 355 354 354 352 352 349 335 326 321 319 329 336 337 340 343 348 349 349 347 345 346 357 359 347 346 346 338 331 331 340 343 347 354 356 356 356 357
313 313 315 319 321 322 321 321 320 320 321 323 323 324 325 325 327 327 328 327 327 328 329 329 329 330 331 333 336 337 336 342 343 346 346 345 344 344 342 340 341 342 345 349 351 350 352 354 357 356 360 356 353 349 335 330 326 315 325 336 339 340 342 344 347 349 349 348 346 352 357 353 349 345 332 328 328 338 344 343 343 348 351 353 357
314 316 318 320 321 318 318 318 320 320 322 323 324 324 327 326 325 328 328 328 329 330 331 331 331 330 331 331 332 335 336 338 343 344 345 345 345 343 341 341 339 336 339 345 349 350 349 350 351 353 357 358 355 354 350 330 321 317 317 338 339 340 342 344 346 348 348 349 349 349 349 336 328 327 326 323 322 322 343 346 345 344 343 342 347
315 319 323 316 316 317 316 317 318 320 321 323 324 324 324 325 325 325 326 329 330 331 332 331 331 331 330 329 330 331 333 333 344 345 347 348 346 344 342 339 337 335 335 340 343 344 346 347 350 353 355 356 358 355 352 330 320 318 316 323 339 341 343 345 347 348 349 350 350 351 352 342 329 325 322 320 318 318 324 342 346 346 346 346 348
321 322 320 315 315 315 315 316 317 319 321 321 322 324 324 324 323 323 323 327 331 330 331 330 330 329 330 329 330 331 334 333 335 338 347 345 346 347 346 341 337 335 337 342 344 345 345 346 348 350 352 353 358 360 357 336 321 316 315 312 333 341 345 347 348 349 351 351 352 352 353 345 331 326 323 320 318 318 319 333 342 329 329 329 342
313 313 316 316 313 313 314 315 318 319 320 320 321 321 322 321 321 321 324 326 327 330 331 331 330 330 330 330 330 329 330 330 334 340 334 334 337 341 345 346 344 344 344 343 344 344 343 344 346 348 351 353 354 352 337 345 332 317 313 311 314 327 329 344 346 348 350 353 354 355 356 352 332 325 321 319 318 317 320 326 320 320 321 322 333
313 314 314 317 312 314 314 316 318 319 319 320 319 319 321 321 321 322 325 326 326 326 328 331 331 329 329 329 328 329 328 331 335 331 331 332 334 338 342 344 344 344 343 343 343 344 342 339 338 340 342 344 351 348 346 341 341 324 314 311 311 312 315 330 341 344 347 350 352 355 345 317 313 309 310 312 314 317 329 319 315 316 318 323 333
312 312 316 314 312 312 314 315 316 317 318 319 319 318 320 320 320 324 326 326 326 327 327 329 328 328 328 326 325 325 327 332 328 329 331 335 332 333 333 336 345 345 344 341 338 337 337 337 337 337 339 341 343 347 350 346 335 330 320 315 312 311 311 310 322 329 336 340 334 324 318 315 315 311 311 314 319 318 311 310 311 313 321 331 335
311 311 313 313 313 313 313 314 314 315 316 318 317 318 317 319 321 324 321 323 325 325 326 326 327 327 325 326 324 325 326 328 329 330 331 328 329 330 332 335 336 335 336 336 336 336 335 334 334 334 335 337 339 342 347 351 351 346 338 323 314 312 316 315 318 325 324 321 317 315 315 316 319 323 332 336 339 340 329 323 319 320 328 332 335
310 312 314 313 314 313 313 313 314 315 315 316 316 317 317 319 320 321 321 323 323 326 326 325 323 325 325 325 323 324 327 326 325 326 327 329 330 330 330 331 329 327 328 332 333 334 333 332 332 331 332 334 335 338 343 345 347 347 346 340 337 332 324 318 322 327 326 328 329 327 328 324 324 325 326 328 330 334 337 339 340 338 336 336 336
311 313 313 312 312 311 313 314 314 314 315 316 317 317 317 318 319 321 321 322 324 325 324 322 322 323 326 324 323 329 326 323 324 325 325 325 327 329 328 327 326 326 326 327 328 329 328 329 330 330 330 330 330 331 336 342 339 335 331 330 330 335 339 338 336 337 338 339 341 335 332 336 339 339 339 339 340 340 339 338 341 343 342 340 341
310 312 312 311 313 313 313 314 313 314 315 316 316 318 319 319 319 319 321 322 323 325 325 323 322 323 325 327 328 323 324 323 322 323 323 324 326 327 325 325 327 329 330 329 326 325 328 328 330 330 329 328 328 328 332 325 327 315 318 320 324 327 328 330 334 318 325 336 340 341 341 341 341 340 340 341 342 342 342 343 344 344 345 344 342
311 311 313 313 314 314 313 313 312 313 314 315 315 317 320 322 322 322 321 320 323 323 322 321 322 322 324 324 325 323 323 324 322 321 322 323 329 320 320 324 324 329 323 315 313 323 327 327 326 327 328 327 327 330 320 309 304 301 301 301 303 300 300 309 311 306 317 327 334 337 340 341 341 341 340 340 340 341 341 342 344 338 344 346 345
309 310 311 313 313 314 313 313 312 314 313 314 314 316 320 320 322 322 322 322 322 322 322 322 324 324 323 326 324 322 322 321 321 321 322 322 322 323 312 311 314 317 312 305 302 302 303 307 319 321 323 319 317 313 308 303 299 299 298 298 298 298 298 298 299 310 323 329 332 334 336 339 340 341 340 340 340 340 340 341 342 343 346 346 343
Wind_Speed
10 12 7 10 10 11 12 10 10 12 10 10 12 9 8 10 11 9 8 6 6 5 5 6 7 6 5 6 5 5 4 4 4 4 5 6 6 5 5 4 4 3 2 1 1 3 4 4 4 3 2 2 2 3 3 3 2 1 1 1 1 1 1 2 3 1 2 1 1 2 3 3 3 4 5 5 5 5 5 7 6 6 7 6 6
11 11 7 12 8 12 10 9 8 11 11 11 11 8 9 10 11 10 8 7 6 5 5 4 4 6 5 5 4 4 5 5 4 4 5 6 7 5 5 5 4 4 3 2 1 3 4 4 4 4 3 2 2 2 4 3 3 2 1 1 0 1 1 2 3 2 1 2 1 1 2 2 4 4 5 5 6 5 6 6 6 8 8 8 6
11 12 7 12 11 12 9 9 8 11 12 12 10 9 9 8 8 9 8 8 6 5 5 4 3 6 5 5 5 4 3 4 4 4 3 5 7 6 5 5 5 4 4 3 3 3 4 4 3 3 3 4 3 1 3 3 3 3 3 2 2 1 2 3 1 1 2 1 1 2 2 0 1 2 4 5 5 6 8 7 7 8 9 7 7
13 13 9 12 10 12 10 8 11 10 10 11 11 9 9 7 7 9 9 8 7 5 6 5 5 4 6 6 5 4 4 4 5 4 3 7 6 5 5 5 4 4 4 3 3 3 5 4 3 3 4 3 3 3 3 3 2 2 2 3 1 1 1 2 2 3 2 2 1 1 1 2 1 3 4 4 7 6 10 8 8 7 7 5 3
11 15 8 13 11 12 11 9 12 10 10 11 10 9 8 10 8 9 9 8 7 6 7 6 5 6 6 5 5 5 4 5 5 3 4 6 6 5 5 5 4 5 4 4 3 4 5 5 3 3 4 4 3 4 3 4 4 3 3 2 2 2 3 2 1 1 2 3 2 1 2 3 1 2 1 2 0 4 6 8 7 6 6 6 5
12 14 10 13 12 11 11 10 12 11 11 10 10 8 9 9 8 8 7 7 7 7 7 6 7 7 6 6 6 5 5 5 6 6 5 5 7 6 6 6 5 5 5 5 4 4 5 4 4 4 3 4 4 4 4 3 4 3 4 5 3 3 1 1 1 1 0 1 2 1 2 1 0 3 3 0 5 2 7 10 8 7 7 6 5
10 13 9 13 12 12 12 10 11 12 11 11 10 8 10 9 8 8 8 7 8 5 6 7 7 7 7 6 5 6 6 4 4 5 6 5 6 7 7 6 5 6 5 4 5 4 4 3 4 5 4 3 3 3 3 4 5 4 3 1 2 1 3 3 1 1 1 2 3 3 1 1 2 2 1 1 3 3 2 3 4 5 5 5 6
8 13 11 12 14 13 13 11 10 12 12 12 11 9 11 9 8 7 7 8 8 5 5 7 7 7 6 5 5 5 5 5 5 5 4 4 7 8 7 5 5 5 5 4 6 5 4 3 3 4 4 4 3 4 5 3 3 2 3 2 0 2 2 1 1 2 0 1 2 4 5 3 3 2 3 3 2 2 4 3 0 2 4 4 5
3 10 11 13 14 14 13 11 10 12 12 11 11 11 11 10 7 6 7 8 8 6 6 6 6 7 7 6 5 5 4 5 5 4 5 4 6 6 6 6 5 5 5 6 6 6 4 4 4 3 5 4 3 4 3 3 4 3 3 3 0 1 1 1 1 1 3 0 3 3 4 3 3 2 2 3 2 1 3 2 0 0 1 3 5
2 3 12 10 14 15 13 12 11 12 11 9 10 12 11 11 7 7 6 7 9 6 6 6 5 5 6 6 6 5 4 3 4 5 5 4 5 7 6 6 5 5 5 5 5 6 4 4 3 4 4 4 4 3 3 3 3 3 4 3 1 0 2 0 0 1 2 1 2 2 2 3 4 3 2 3 1 1 0 2 3 4 4 3 3
5 3 4 6 9 16 13 14 11 12 12 10 11 12 12 12 9 8 7 6 9 7 8 7 6 5 5 5 7 5 6 6 4 3 3 3 5 4 5 6 3 5 5 5 5 5 4 4 4 4 3 3 4 4 3 3 3 3 3 3 3 1 1 2 1 1 2 1 1 2 1 2 1 1 2 1 1 1 3 3 2 3 1 5 2
7 3 2 5 5 7 14 14 10 13 14 11 12 12 12 12 11 8 8 6 9 8 8 7 7 6 5 5 6 6 7 6 7 6 5 5 3 4 6 5 3 4 4 5 5 5 4 4 4 4 4 3 4 3 3 4 3 3 3 4 3 2 1 1 1 1 0 0 0 1 2 2 2 2 3 2 1 1 1 3 2 4 3 0 2
7 3 3 3 5 5 11 12 7 12 14 12 14 13 12 12 12 11 9 6 9 8 8 6 8 7 6 5 5 6 7 6 7 6 5 5 4 4 5 5 5 4 4 5 4 5 5 5 4 4 4 4 3 3 2 3 3 4 4 3 4 3 1 0 0 2 1 2 2 3 3 2 5 5 2 2 1 1 2 1 2 1 1 3 2
9 7 2 2 3 3 5 9 8 8 13 12 14 12 11 12 12 11 11 7 8 9 8 7 7 7 6 5 4 5 6 6 7 6 6 5 5 5 5 5 5 6 4 5 5 4 5 5 3 4 4 4 4 3 3 3 3 5 4 5 4 3 2 1 1 3 3 2 3 1 1 3 3 3 4 2 2 1 1 1 1 2 1 2 1
8 6 5 4 3 4 4 6 7 6 12 11 13 13 12 12 12 12 11 9 9 10 9 8 7 6 6 6 5 4 6 7 6 6 6 5 5 5 4 4 4 4 5 4 5 5 5 5 4 3 4 4 3 3 4 3 3 3 5 5 4 4 4 3 2 3 4 4 2 1 2 2 1 4 3 2 2 1 1 1 2 3 4 4 3
5 5 5 5 2 1 3 4 4 4 6 6 8 13 13 13 14 13 12 10 9 10 9 9 8 6 6 6 6 5 4 5 6 5 6 6 5 6 6 6 5 4 4 4 5 5 4 5 4 4 4 4 3 3 3 3 3 3 3 4 4 4 5 4 4 3 5 4 4 2 1 2 1 2 2 2 3 3 2 3 4 4 2 3 4
3 5 5 6 9 3 2 3 4 4 3 4 5 10 12 14 14 13 12 11 9 9 10 8 8 6 7 7 6 6 6 6 6 6 7 7 6 5 6 6 6 6 5 5 4 5 5 5 5 4 4 4 4 4 3 3 3 3 3 2 4 3 5 5 4 4 4 4 4 3 1 2 3 1 2 1 1 2 2 3 3 5 3 2 2
4 5 5 4 4 6 3 3 3 3 3 1 4 5 8 11 14 13 12 13 10 10 9 9 8 7 7 7 7 6 6 6 5 6 6 6 6 6 6 6 5 6 6 6 5 6 5 6 5 4 5 4 5 4 3 3 4 4 3 3 4 3 4 4 4 4 5 3 3 2 3 3 3 2 3 0 1 2 2 2 3 1 4 1 1
4 5 5 5 4 4 4 4 3 6 4 1 1 1 5 9 11 13 14 14 14 10 9 8 8 7 7 8 7 7 6 6 5 5 5 5 6 7 6 6 5 5 6 4 6 6 6 6 6 4 5 5 4 5 4 3 4 3 3 5 3 3 4 5 4 4 4 3 4 3 3 4 3 4 3 3 0 1 0 1 1 1 1 2 3
4 6 5 6 6 3 2 3 6 8 7 2 2 2 3 8 11 11 11 11 10 10 9 9 9 8 7 6 6 6 6 6 6 5 6 5 5 7 6 5 7 5 7 5 6 6 5 6 6 5 6 5 5 4 5 4 4 4 4 5 4 4 3 4 4 5 4 3 4 4 3 3 3 1 0 1 1 3 2 2 1 0 2 3 4
3 7 8 8 7 8 1 0 1 3 4 4 3 4 5 3 11 12 12 11 11 11 10 10 9 9 8 9 8 7 6 6 7 6 6 7 6 6 7 5 6 5 6 6 7 7 6 6 4 4 6 6 6 5 5 4 4 5 4 5 5 4 4 3 3 4 4 4 4 4 5 3 1 0 2 2 1 3 2 4 2 0 2 1 2
4 7 8 7 9 9 8 5 3 4 3 2 2 3 6 6 6 9 10 11 12 10 7 5 8 10 9 9 10 8 7 6 6 5 5 7 7 5 6 6 7 6 7 6 7 5 6 7 5 5 4 5 7 6 6 5 5 5 6 4 5 5 4 4 4 4 4 3 3 5 5 4 3 2 1 2 3 1 3 3 3 5 4 5 3
10 10 8 8 8 8 8 9 8 4 3 1 3 4 9 12 11 7 3 3 1 7 7 6 5 4 6 8 9 9 9 8 7 6 6 6 7 7 5 7 6 6 6 7 7 6 6 6 6 6 7 5 6 7 7 7 6 6 6 5 4 5 5 5 5 5 5 5 3 3 4 4 3 3 3 4 3 4 1 2 4 3 4 5 4
10 10 9 9 9 8 10 11 10 10 10 10 9 9 10 10 7 8 9 7 2 3 7 6 6 5 4 3 2 8 11 9 8 8 8 6 5 6 7 6 6 6 7 6 7 8 6 7 7 6 7 6 6 6 6 7 8 7 6 6 5 5 6 7 6 5 5 4 4 4 3 4 3 3 4 4 5 5 5 3 3 4 4 5 5
10 10 9 10 11 10 9 9 9 9 10 10 11 11 8 7 8 5 4 5 5 4 4 2 5 6 3 2 4 2 2 6 7 8 8 6 6 5 8 8 6 5 5 7 7 7 7 7 8 7 6 6 6 7 6 6 6 6 7 7 6 4 5 6 7 6 6 5 5 5 5 4 3 4 4 4 5 5 6 5 4 3 4 5 5
8 8 9 10 8 7 8 9 8 9 10 10 10 11 11 8 8 3 7 5 2 1 3 3 3 5 3 3 3 5 6 8 6 6 4 3 3 7 5 8 9 7 4 6 8 8 8 8 8 8 7 6 6 6 7 6 6 6 7 7 7 7 5 7 7 7 6 6 6 6 6 6 5 5 5 5 5 7 6 5 5 5 4 3 4
8 7 7 7 9 9 8 9 8 9 10 9 9 10 11 9 9 9 7 4 4 6 7 8 8 5 7 5 4 4 3 4 4 4 3 4 8 8 4 6 10 8 9 6 7 8 9 9 9 9 8 7 7 6 5 5 6 6 6 7 7 7 7 5 6 7 7 7 7 7 7 7 7 7 6 6 5 6 6 6 6 5 4 3 3
8 8 8 8 8 8 8 8 8 8 8 8 8 9 9 8 8 9 10 9 7 8 10 10 7 6 6 4 4 5 5 5 5 5 5 6 7 6 7 10 4 7 11 11 7 9 8 9 9 9 9 8 7 7 6 6 5 5 6 7 7 7 7 7 6 6 6 6 6 7 7 7 8 8 8 7 7 6 5 6 6 4 4 4 4
9 8 7 6 7 8 8 7 8 8 9 7 7 8 8 8 8 9 9 7 5 5 10 11 10 8 6 5 4 4 4 3 4 5 6 5 5 5 4 3 4 7 6 4 6 8 10 9 9 9 9 8 8 8 7 7 7 7 6 5 7 8 7 7 7 7 7 7 7 7 8 8 8 11 13 11 10 9 6 7 6 5 5 5 5
11 10 9 8 7 7 9 9 8 9 7 8 6 6 7 6 7 8 7 7 6 6 8 9 10 8 6 4 4 4 2 2 3 5 4 3 4 4 4 3 1 2 3 4 7 8 4 10 9 10 10 9 8 7 10 15 12 8 8 8 6 7 8 7 7 7 7 8 9 8 8 12 15 15 15 16 15 15 13 10 8 7 8 7 6
10 9 10 9 9 8 7 8 8 6 6 4 5 7 8 8 7 8 8 7 7 6 8 10 12 9 7 4 4 4 3 3 3 2 2 1 0 3 5 5 3 3 2 0 3 6 7 5 11 11 11 10 9 9 16 17 17 17 11 9 9 7 6 8 8 7 7 8 8 8 8 10 10 11 13 17 16 16 16 16 15 13 11 9 7
9 9 8 8 9 9 8 9 10 7 5 4 3 3 5 7 8 9 8 6 6 6 8 9 10 10 5 4 3 3 5 4 3 2 2 3 1 3 4 3 6 7 6 6 4 4 4 4 6 10 11 10 10 13 16 17 18 18 15 10 9 9 8 8 9 9 9 8 7 7 6 6 7 9 8 11 15 18 18 17 16 14 14 14 12
9 8 7 7 7 7 7 8 8 8 7 7 7 8 9 9 10 10 8 8 7 7 7 9 8 9 7 6 4 4 5 5 5 3 2 3 2 0 2 5 5 1 3 2 5 7 6 3 1 4 8 11 10 14 17 18 19 19 19 15 9 10 10 8 8 10 10 9 8 8 8 7 7 10 9 7 7 10 14 18 18 18 16 14 13
9 7 6 4 5 5 6 6 6 7 8 8 7 9 8 8 11 10 10 8 7 8 7 8 8 8 5 3 4 5 6 5 4 4 4 3 3 2 2 0 2 3 2 3 4 6 7 5 3 1 0 3 3 6 13 16 17 19 19 17 11 11 11 11 9 9 9 10 10 9 8 8 9 9 8 6 6 8 8 8 9 8 8 12 14
8 6 5 4 4 4 5 7 8 6 5 7 9 9 9 8 7 11 10 8 8 9 9 7 6 3 3 2 3 4 5 5 4 4 4 4 3 4 4 3 2 3 4 5 2 1 2 2 2 2 2 4 2 6 7 10 10 10 13 13 11 11 10 10 10 10 9 9 9 10 9 10 9 9 9 10 7 7 7 8 9 10 10 10 9
8 7 4 4 4 4 5 7 5 6 5 5 7 8 9 9 8 10 10 9 9 9 8 6 4 3 1 1 2 3 3 2 3 3 3 4 4 3 4 4 4 4 4 4 4 3 4 4 4 4 4 5 5 8 6 8 10 13 12 7 7 9 10 10 10 9 9 9 8 9 9 10 10 9 12 16 14 9 8 9 9 10 10 9 10
8 7 5 3 4 4 5 5 7 8 9 7 7 7 8 8 8 8 9 9 8 8 8 6 5 4 4 4 2 3 3 3 3 4 5 5 4 4 4 4 4 4 5 5 4 3 2 2 3 3 4 5 5 7 10 8 8 9 7 5 8 8 9 10 10 10 10 9 9 9 9 9 9 10 13 16 17 13 7 9 9 10 10 9 10
8 6 5 3 4 5 6 8 8 8 8 8 9 8 6 6 7 7 8 7 7 7 6 6 7 7 6 4 4 3 3 3 4 5 5 6 6 5 6 7 7 7 8 7 6 5 4 4 4 4 5 5 6 7 6 10 12 10 8 6 6 7 10 11 10 10 9 9 10 14 11 9 9 9 12 15 16 12 8 9 9 9 10 11 10
8 5 4 5 5 6 6 8 9 9 8 8 8 7 7 6 6 6 6 6 6 5 5 6 6 7 6 6 4 4 4 2 2 2 2 3 4 3 3 4 6 7 8 8 7 6 6 5 5 5 8 7 6 7 9 9 10 11 8 5 5 6 8 9 10 10 9 8 9 11 16 13 9 10 13 13 15 12 9 10 10 9 10 12 12
7 6 5 6 7 8 9 10 10 8 8 8 6 6 5 5 6 4 5 4 4 4 4 4 6 5 5 7 5 4 5 2 4 2 1 1 1 2 4 5 6 5 7 7 7 6 7 7 7 7 6 6 6 6 6 9 10 9 10 6 4 5 8 9 8 9 9 8 9 9 10 14 15 15 14 13 13 14 11 10 8 9 11 15 12
7 9 8 7 8 8 8 8 7 7 7 6 5 5 5 5 5 5 6 3 3 3 3 3 5 5 6 6 6 5 5 5 0 3 3 3 3 3 3 3 4 6 6 6 6 6 7 8 8 8 7 7 6 6 6 10 11 10 9 7 4 6 7 7 7 8 8 9 9 9 9 13 16 17 16 17 16 15 13 10 10 11 14 16 10
8 10 7 7 7 7 7 7 7 8 7 6 6 5 5 5 5 6 6 6 3 2 2 3 3 5 6 7 7 6 5 4 4 3 0 2 3 5 5 6 6 6 6 6 5 5 5 6 7 7 7 7 8 10 6 5 6 9 7 9 6 7 7 7 8 8 8 8 9 9 9 12 17 17 17 18 18 17 17 10 13 17 17 15 12
8 10 10 8 6 6 6 5 5 6 5 6 6 6 5 5 4 6 6 5 6 4 1 2 2 3 4 6 6 7 6 6 4 3 3 4 4 3 4 4 5 4 4 5 5 5 6 6 7 7 7 7 7 6 8 3 5 10 13 12 14 11 10 7 8 9 9 8 7 8 10 16 18 19 19 18 17 17 11 11 18 18 16 14 10
9 10 7 7 7 7 6 5 4 4 4 4 4 4 4 5 4 5 4 4 5 5 4 1 2 1 2 4 6 7 7 6 3 5 5 5 5 4 3 3 4 3 3 3 3 3 4 5 6 7 7 8 7 4 6 6 7 10 14 15 14 15 13 8 7 8 8 9 9 7 4 10 9 10 10 10 10 9 9 14 13 15 15 12 8
8 7 5 5 5 5 5 6 6 7 7 6 5 4 4 4 5 5 5 5 5 5 6 4 0 1 1 3 5 6 7 3 5 6 5 5 5 5 5 5 4 2 3 4 4 4 3 4 4 5 6 7 7 7 6 5 6 9 13 14 14 13 13 11 8 7 8 10 11 14 14 11 6 8 9 8 6 7 9 10 11 10 8 4 6
6 5 4 3 3 3 4 5 6 6 6 6 7 7 6 5 5 4 6 5 5 5 5 6 5 0 2 3 4 6 7 5 6 6 5 6 6 6 6 5 6 6 6 6 5 5 5 5 5 4 4 5 6 6 6 5 4 6 8 11 12 12 13 12 11 9 11 13 15 15 16 16 15 13 9 6 5 6 8 11 11 8 5 6 5
4 3 1 1 1 2 3 4 3 4 4 5 6 6 6 6 6 6 4 4 4 4 5 4 6 3 1 2 4 6 3 6 6 7 7 7 6 6 6 6 6 6 6 6 6 6 7 6 7 6 5 5 5 5 5 5 6 6 7 8 8 10 11 9 6 7 8 9 12 12 10 11 10 12 12 12 11 10 9 9 8 7 7 7 7
1 1 1 2 1 3 3 2 3 4 5 5 6 6 5 6 7 6 4 3 4 4 4 4 6 6 0 1 3 5 6 5 6 7 7 8 7 6 6 6 6 6 6 6 6 6 7 7 7 7 7 7 6 5 5 4 6 8 7 6 8 9 8 6 6 6 6 7 8 7 9 7 7 7 7 6 6 6 7 7 9 9 9 9 10
0 0 1 3 3 4 4 4 5 4 4 5 6 7 7 7 6 6 4 3 3 3 4 5 6 4 2 1 1 3 4 5 5 6 6 6 7 7 7 6 5 5 6 6 7 6 7 7 6 7 7 8 8 6 3 2 5 7 8 7 7 7 7 8 8 11 11 9 8 7 7 8 7 7 7 7 6 5 5 6 8 9 10 10 9
2 3 2 2 2 4 4 4 4 4 5 5 6 6 6 8 8 8 5 4 3 2 3 4 6 4 4 4 3 4 4 3 3 4 5 6 8 11 8 6 5 9 13 13 6 5 7 7 7 7 5 6 7 8 9 11 11 10 9 9 9 10 9 8 8 10 5 7 8 9 9 9 9 8 8 7 7 6 6 5 5 8 9 10 10
3 1 0 3 4 5 4 4 4 4 4 5 6 6 6 8 7 8 10 8 7 5 5 4 5 4 3 3 4 4 3 2 2 3 4 5 6 7 9 10 8 9 10 13 14 14 14 13 8 6 9 11 11 13 15 9 8 10 11 11 12 12 12 11 8 7 5 4 7 8 9 9 9 9 9 9 8 7 7 5 6 6 7 9 9
Wind_Direction
143 153 166 139 140 134 139 139 140 143 138 134 134 135 127 138 133 136 136 135 137 137 140 140 141 135 135 148 149 154 143 127 120 135 141 144 150 155 153 154 150 152 165 141 149 127 125 133 133 149 159 162 133 164 181 178 189 159 105 63 74 337 319 281 268 235 62 6 5 172 207 240 216 203 207 205 197 203 186 185 195 194 213 210 196
146 156 164 142 139 136 136 137 134 135 136 135 137 131 135 136 135 139 138 143 149 150 153 151 149 152 153 162 148 152 140 137 136 158 154 148 153 154 150 153 156 159 162 167 166 129 128 138 147 165 171 135 122 133 159 178 158 173 140 66 306 186 251 282 270 80 359 173 155 279 301 300 241 223 215 220 210 192 198 195 187 198 208 210 192
153 158 164 148 144 136 133 139 128 136 135 136 139 128 138 134 134 139 143 147 159 158 155 171 151 153 147 150 145 144 146 153 150 164 166 137 152 147 149 156 156 157 164 168 168 137 130 136 166 166 146 126 127 185 127 152 177 193 176 170 247 296 254 263 243 160 207 151 152 89 266 232 305 292 281 256 237 193 191 194 198 192 204 198 171
158 162 164 153 146 140 138 138 134 139 137 140 145 141 145 142 137 142 147 150 167 170 163 175 158 148 135 140 142 144 154 142 134 150 158 135 141 144 144 156 156 161 165 170 171 143 141 155 187 148 147 139 153 163 143 180 215 220 167 210 134 209 274 280 190 198 149 86 2 184 233 131 343 295 246 253 221 192 170 188 185 189 187 192 146
158 162 163 156 147 147 144 140 142 146 143 148 151 149 153 152 148 147 150 156 174 172 163 169 130 119 119 106 98 89 84 107 122 150 154 142 142 156 157 161 165 167 171 179 177 157 153 170 169 159 147 160 166 161 172 195 213 192 189 171 165 168 259 227 302 83 117 165 157 76 3 29 214 247 240 259 13 121 174 177 191 180 183 191 176
157 165 166 158 146 148 146 144 148 150 148 154 154 151 150 153 150 149 151 156 170 176 168 154 143 136 133 133 132 136 141 145 164 171 178 166 164 165 159 172 176 174 177 188 161 154 167 175 160 154 160 172 178 176 190 205 206 198 190 191 203 230 184 97 186 300 182 232 188 166 163 171 299 281 82 31 313 5 147 167 182 171 163 162 179
167 163 163 158 144 150 156 154 152 151 152 153 156 154 152 157 156 154 158 158 168 177 166 142 139 141 148 153 156 160 160 188 179 172 173 181 161 164 164 182 184 173 183 179 153 155 171 168 154 155 172 187 194 181 199 209 204 195 192 165 217 181 86 35 300 252 1 347 340 326 230 106 137 64 23 36 23 334 31 185 188 165 151 147 173
176 162 167 156 150 156 159 159 156 153 153 153 160 153 156 162 163 156 156 156 166 166 163 148 142 149 151 153 160 167 172 177 177 179 179 165 148 154 159 179 186 168 183 160 156 157 174 169 157 161 171 199 201 184 191 213 213 148 168 154 62 70 113 112 47 30 108 276 5 34 6 352 28 54 115 132 154 50 310 323 311 193 147 176 200
142 165 169 156 152 160 155 160 158 151 160 154 163 152 156 162 163 159 152 154 167 158 157 151 145 150 153 158 160 176 167 156 155 157 165 163 132 148 156 174 189 169 172 155 158 166 171 171 178 179 178 189 188 207 215 195 185 141 127 105 89 347 52 169 108 5 48 291 57 5 23 355 339 358 45 92 105 82 280 16 55 301 147 213 211
126 168 166 159 152 161 157 160 158 162 161 155 150 150 154 161 163 167 161 157 166 158 155 152 155 150 155 159 164 169 158 148 137 147 160 162 145 155 159 172 179 155 158 152 156 164 165 171 184 187 186 175 179 210 221 187 159 131 144 136 160 292 324 112 64 134 89 53 118 127 52 351 6 357 7 10 5 115 329 296 287 173 148 246 205
160 143 140 144 150 158 159 164 166 163 159 159 149 154 155 161 165 167 175 159 164 164 158 158 164 161 169 162 168 165 158 151 149 147 151 162 163 155 160 168 162 156 153 161 157 163 167 172 185 195 190 171 184 214 215 169 145 149 140 142 172 181 251 333 1 152 92 57 85 115 182 189 170 211 272 352 112 28 17 320 304 346 229 92 99
77 61 104 126 78 149 160 169 167 162 159 160 151 154 156 161 164 163 178 162 168 166 161 162 165 171 183 167 174 165 165 153 157 164 169 173 171 161 156 151 160 162 157 157 166 165 171 174 194 190 176 187 204 206 171 163 155 145 153 151 185 208 214 62 68 357 349 265 292 293 272 243 275 228 236 201 130 154 149 280 324 336 339 119 276
107 47 295 123 126 135 163 172 145 166 160 163 155 156 156 161 162 164 180 167 172 168 169 168 170 174 183 182 179 159 166 154 152 160 168 166 169 157 151 157 165 174 176 169 181 176 169 184 204 173 167 192 198 200 204 175 169 174 169 165 172 200 217 166 28 275 237 202 232 241 232 291 264 256 221 190 211 145 105 16 292 338 257 306 297
108 157 238 97 126 131 155 153 126 156 165 161 155 157 158 164 165 166 178 171 169 173 173 174 175 176 177 183 182 163 155 160 156 160 164 167 164 165 164 168 168 185 179 179 184 185 172 189 185 169 174 183 194 194 201 209 152 169 169 166 176 204 199 200 209 283 311 283 220 183 171 198 266 295 271 221 191 176 263 195 288 329 356 315 298
135 143 147 129 177 152 169 147 143 142 170 167 157 158 160 162 166 169 171 175 168 173 175 182 180 177 178 181 181 173 154 163 162 162 167 164 166 162 169 179 174 184 191 186 184 185 173 179 181 167 179 182 186 179 190 174 157 137 169 173 180 183 191 199 229 263 284 289 285 268 270 5 347 347 328 36 323 149 171 178 122 34 349 355 354
134 135 136 137 112 161 150 146 137 145 158 155 147 161 163 164 170 171 173 176 171 172 178 183 185 177 175 179 183 174 168 151 168 162 169 167 170 164 176 183 186 191 192 178 195 182 176 175 181 183 177 172 174 184 185 169 171 168 160 178 187 179 180 189 216 225 263 278 267 295 6 320 340 13 30 42 50 94 107 71 98 94 82 326 336
117 132 139 147 140 207 139 124 120 137 186 171 131 165 166 165 170 171 171 174 172 175 177 178 183 177 181 178 179 177 174 174 165 175 171 174 172 173 178 185 184 188 189 189 179 182 175 177 185 183 185 173 173 187 188 178 173 178 176 198 211 181 181 191 198 214 243 256 271 222 205 261 292 23 6 23 39 73 61 72 84 111 141 105 340
41 70 79 68 122 146 143 110 89 98 143 130 140 145 161 168 169 169 170 175 178 175 175 178 176 184 183 181 183 180 180 182 174 177 168 169 177 176 176 191 186 184 180 180 174 179 179 184 179 180 184 178 176 185 190 184 178 179 186 206 216 173 192 200 204 218 242 239 242 272 227 220 263 305 280 309 147 94 55 42 60 128 129 129 162
71 78 62 54 32 43 77 124 123 61 346 349 12 137 135 169 173 172 175 178 179 179 177 176 177 182 185 187 182 179 177 181 186 179 177 173 176 180 176 187 191 169 170 163 171 169 175 181 182 180 182 181 176 185 189 190 183 190 188 200 221 195 182 201 207 202 237 251 253 240 223 223 241 258 304 308 326 141 218 55 2 88 129 137 138
37 66 70 54 31 29 91 120 143 148 185 198 210 210 190 167 173 180 178 176 170 176 174 179 183 185 183 181 187 183 176 179 184 182 187 189 185 178 185 179 192 170 185 173 178 170 163 171 181 175 185 183 189 189 186 189 187 193 198 199 217 204 182 180 204 208 232 240 238 251 200 204 240 190 188 303 242 228 191 207 250 60 192 148 126
37 63 54 34 22 8 46 66 69 165 151 173 186 198 209 195 173 177 175 172 174 176 177 182 180 187 181 180 186 183 187 182 183 186 187 189 190 179 189 182 184 180 184 164 178 176 170 176 178 186 180 186 188 191 185 182 183 200 213 199 204 191 194 210 195 212 222 230 226 219 234 223 187 47 311 334 59 216 220 198 208 169 275 245 162
87 86 62 43 30 17 18 25 44 56 78 116 215 207 205 214 169 181 174 174 173 175 176 186 183 181 186 183 185 183 190 185 190 194 184 188 188 184 185 180 179 192 180 169 172 174 177 175 185 194 209 187 185 188 189 184 190 196 219 212 193 191 193 202 202 224 238 242 206 219 223 219 194 201 249 301 284 246 227 230 229 232 239 247 207
46 58 60 50 41 32 24 28 33 54 5 287 249 15 28 12 1 8 17 30 97 178 174 156 165 155 180 182 180 182 183 189 197 200 200 184 187 190 175 188 185 190 184 177 175 176 173 180 185 189 208 209 195 190 190 186 188 191 205 227 195 190 193 205 204 211 227 244 239 200 220 203 177 199 229 243 267 283 262 234 251 239 229 236 222
51 52 53 51 41 35 33 29 29 28 30 31 48 74 74 76 48 358 1 11 333 241 168 155 143 137 121 100 179 187 181 187 198 199 201 201 184 187 187 185 198 181 184 185 179 178 169 179 189 193 204 209 199 199 189 188 187 190 199 214 221 202 195 201 205 208 215 218 231 228 225 199 191 193 224 224 234 246 263 230 233 244 228 242 245
53 50 48 52 45 36 38 37 30 29 34 39 41 48 47 63 107 131 48 32 335 350 322 127 129 122 93 94 96 53 223 190 194 193 199 199 205 192 186 196 194 199 188 185 178 182 179 178 189 197 200 210 195 196 198 193 193 194 196 205 220 209 207 206 205 206 206 206 213 217 220 203 194 212 226 221 224 229 240 252 239 230 230 239 240
59 60 55 52 52 44 36 41 41 37 33 31 34 43 52 30 16 34 108 103 323 328 316 26 99 97 94 77 66 87 94 86 56 25 8 329 236 203 191 198 192 202 212 192 181 181 184 187 190 194 193 202 198 186 196 204 195 188 196 205 210 220 207 207 213 208 209 205 211 213 212 206 205 206 224 218 214 217 223 231 246 252 234 225 231
63 59 63 63 59 54 49 50 48 49 46 40 30 38 44 27 26 19 1 45 86 83 65 13 8 60 83 73 78 64 77 86 79 57 46 39 22 353 300 206 192 196 207 203 194 188 184 186 193 191 195 191 198 200 190 200 207 202 196 199 208 210 217 211 206 210 212 212 212 211 212 207 208 209 214 220 213 216 214 221 231 235 241 232 232
53 55 54 64 71 66 58 51 58 62 60 52 45 48 45 51 43 22 20 2 356 55 70 61 41 16 47 63 69 75 72 80 90 102 82 59 36 24 29 5 316 211 192 206 201 197 191 185 189 193 197 190 188 197 202 202 209 210 207 209 206 208 210 217 218 215 213 214 212 213 209 211 211 211 210 214 210 212 208 223 222 219 235 243 249
82 62 51 54 76 90 82 70 63 67 66 64 56 53 45 36 47 50 46 21 327 32 74 75 62 33 18 25 40 60 58 64 87 90 89 83 84 72 47 16 37 32 359 320 240 195 193 193 187 192 193 193 188 196 198 199 204 217 219 216 215 212 210 211 216 215 219 222 226 226 224 219 211 212 208 207 209 204 204 213 224 215 224 232 241
81 71 54 48 49 78 82 72 62 60 69 77 82 80 75 65 46 49 49 35 13 25 67 81 79 69 29 13 48 54 66 82 88 107 120 130 126 125 113 108 38 23 11 18 7 331 236 198 192 191 192 195 196 195 201 201 199 205 213 222 218 217 215 209 208 219 223 221 224 227 227 222 220 218 214 213 212 211 209 208 210 206 212 214 219
67 70 64 43 36 45 76 72 64 67 56 46 81 120 126 115 110 83 60 52 38 36 45 60 66 53 39 30 46 55 57 77 99 103 85 65 166 180 144 143 172 181 156 310 336 341 335 269 208 193 193 198 200 199 196 201 204 204 205 210 220 220 218 214 211 210 221 224 226 224 227 235 232 223 222 217 215 217 217 216 212 207 202 200 207
65 51 46 46 36 31 45 76 76 54 47 32 35 66 109 108 98 94 95 88 69 53 53 59 69 71 27 13 27 47 57 59 49 27 60 114 134 307 287 228 172 177 187 175 204 250 286 309 258 217 202 201 201 202 195 199 204 206 205 209 213 220 216 214 217 215 218 220 224 226 228 227 234 233 219 219 221 220 218 220 221 217 211 206 199
77 61 49 35 24 15 22 48 58 54 45 29 26 29 45 74 74 73 71 65 62 60 65 62 61 68 57 4 354 48 60 55 49 49 42 32 358 351 308 325 311 33 73 258 214 206 233 264 301 281 239 209 205 202 201 199 203 205 207 207 215 217 221 221 218 219 218 217 216 223 232 238 242 235 232 227 220 231 232 229 226 226 225 220 220
78 73 59 33 16 9 10 50 57 52 48 36 23 30 32 71 88 79 69 58 52 49 55 63 61 58 53 31 11 26 47 49 49 51 58 52 28 359 336 10 321 329 291 208 223 225 219 233 244 158 70 325 281 247 217 206 206 208 209 207 215 212 216 223 221 221 222 221 220 217 220 227 229 240 241 218 206 216 223 235 245 246 243 241 233
91 77 56 31 8 4 10 46 43 35 45 43 32 29 24 31 67 77 68 56 47 43 40 46 62 72 68 43 39 42 42 29 25 35 37 60 51 8 352 355 336 280 262 281 294 250 281 285 264 244 214 173 188 126 167 209 227 239 239 223 221 218 219 219 222 224 223 222 222 223 222 224 226 225 226 229 209 207 211 218 223 230 235 237 235
104 95 72 31 1 359 31 60 47 27 21 53 54 40 31 25 38 66 64 52 44 42 37 32 38 42 49 131 96 66 49 46 39 34 38 27 24 21 348 339 315 297 281 260 262 243 231 228 237 245 263 260 182 164 163 181 201 207 204 207 248 247 231 225 224 223 224 225 223 222 222 227 228 227 229 227 227 209 202 210 217 224 229 230 232
106 101 95 48 2 11 55 63 44 27 25 34 54 51 43 29 29 55 59 52 44 37 28 18 10 2 6 15 55 57 55 43 45 39 36 25 11 357 357 340 321 316 304 289 280 270 238 241 252 235 245 252 266 182 179 199 201 198 186 211 216 231 247 243 232 226 226 225 225 221 222 225 226 227 228 225 230 223 214 212 214 219 222 224 231
87 83 83 64 24 26 48 58 42 34 42 42 37 40 38 36 32 47 59 57 49 40 22 11 358 350 350 1 27 26 48 49 20 29 40 37 16 21 15 3 352 336 322 323 318 305 288 261 251 262 245 258 259 274 240 189 198 197 185 197 212 220 233 238 244 240 233 233 232 228 221 222 228 235 228 222 223 215 220 221 217 220 225 229 233
70 67 71 55 43 36 53 54 39 37 42 41 35 34 30 23 22 30 58 58 54 45 30 10 352 344 349 354 6 13 8 82 88 60 32 34 17 18 16 4 342 334 319 310 306 306 304 295 271 250 246 247 262 263 256 250 207 192 188 206 208 219 237 240 240 245 245 242 244 245 242 237 232 234 235 230 227 212 218 218 218 218 229 233 233
64 48 53 60 45 36 43 45 40 37 37 37 27 27 27 23 15 18 54 62 61 51 35 3 349 343 352 353 352 354 345 8 146 143 126 79 39 16 349 340 328 323 312 311 313 307 299 292 291 289 284 258 251 254 255 250 245 215 193 200 202 218 236 242 242 243 247 247 249 250 253 256 253 253 251 247 241 226 227 232 224 225 234 243 240
56 55 42 43 44 43 42 39 37 35 29 31 25 29 27 17 11 25 21 33 86 75 62 22 353 350 353 347 340 341 335 338 162 181 173 176 171 180 194 211 259 279 273 284 297 309 312 310 308 303 295 291 269 256 254 240 248 246 223 199 241 237 245 247 247 247 243 246 246 243 246 244 242 243 243 244 244 239 235 244 239 236 235 243 252
59 56 46 39 38 38 32 32 34 30 22 19 21 32 24 18 20 22 4 348 12 22 81 51 32 0 345 338 334 330 335 336 335 334 194 234 209 194 195 201 211 230 256 273 283 288 290 296 300 298 297 295 293 283 304 306 286 257 242 213 240 251 245 255 257 253 251 247 244 244 244 243 239 239 240 242 244 244 238 233 246 249 259 266 261
45 44 32 27 35 26 27 29 27 26 21 24 22 22 11 9 10 12 342 346 347 336 37 101 65 29 336 331 327 333 330 328 324 345 356 324 306 267 227 211 218 233 257 279 296 303 308 312 317 318 317 308 310 28 21 307 268 259 259 232 223 235 257 256 259 260 255 256 253 250 246 244 237 235 237 242 247 252 254 243 246 254 263 276 292
55 52 34 20 17 8 12 13 15 13 22 27 37 18 4 349 5 336 332 336 331 339 321 163 103 74 345 341 330 327 324 312 326 347 337 323 315 316 305 264 238 245 265 300 305 335 349 354 344 336 338 342 347 331 264 275 283 263 250 242 233 229 234 238 250 261 267 268 269 268 326 355 339 332 324 308 285 255 236 244 249 256 262 271 271
66 53 36 28 17 2 355 6 8 12 10 4 12 16 356 357 342 334 343 343 346 346 347 331 169 133 62 6 323 318 317 323 345 336 329 333 344 347 344 338 333 337 347 348 331 336 334 330 338 330 326 323 328 322 306 271 250 265 271 274 267 257 252 237 246 243 253 260 270 284 292 294 298 307 307 302 291 266 260 267 263 260 263 255 243
64 66 41 31 360 358 13 26 8 8 12 10 6 4 354 349 331 345 346 340 353 347 341 330 325 113 73 17 321 322 319 348 350 343 346 350 346 341 349 359 24 11 356 338 332 333 327 319 315 308 305 306 311 321 326 325 324 301 287 280 274 270 260 245 233 260 270 279 283 282 283 285 281 272 264 258 263 262 263 257 255 250 244 244 237
61 57 54 7 292 21 36 33 9 11 15 15 3 355 347 339 339 330 319 338 337 328 325 329 322 325 40 47 349 310 332 6 6 353 352 348 344 355 3 4 358 355 346 333 332 329 322 320 314 313 310 311 314 324 326 333 341 355 354 345 327 297 273 268 257 254 262 263 263 260 255 253 250 258 256 254 256 263 268 264 255 243 245 242 242
95 75 1 313 319 79 51 32 31 27 17 12 0 346 333 325 317 312 310 319 313 316 315 311 312 297 230 43 302 333 17 14 4 356 350 344 343 347 356 350 339 328 325 321 319 319 315 311 312 310 316 319 322 331 334 9 339 336 331 329 325 320 315 310 299 288 288 281 284 284 272 263 255 253 248 241 237 228 234 251 255 250 244 238 240
139 186 115 72 44 48 36 38 45 24 23 13 357 339 331 319 302 296 305 307 299 306 308 299 298 289 219 235 54 51 33 22 5 357 340 327 323 331 329 319 309 303 301 303 303 300 296 298 299 302 310 314 314 313 294 29 332 327 324 322 323 313 308 305 308 337 331 312 297 280 276 276 268 262 258 251 249 242 247 243 253 253 250 244 235
87 56 23 76 71 63 54 45 41 31 24 12 349 329 340 348 353 337 317 308 312 323 327 328 308 327 13 40 43 44 34 18 9 339 324 319 316 310 291 292 304 311 311 308 299 268 280 295 303 291 274 263 279 285 302 320 323 322 306 293 285 287 285 282 299 310 289 289 279 283 279 281 279 273 264 254 245 232 234 242 248 258 254 252 245
44 3 77 67 67 62 51 44 37 30 24 12 351 346 359 360 8 10 6 4 3 0 350 332 7 24 22 42 24 22 350 336 297 294 305 310 309 311 302 296 289 297 312 318 315 295 283 278 258 281 291 274 259 273 288 308 320 309 309 306 308 307 312 314 331 347 322 274 288 278 276 272 272 271 266 261 251 245 237 233 248 257 264 259 252